AirNav   Everest Fuels
 
 1084 users online  

WI97 Mathaire Field Airport
Marshall, Wisconsin, USA

GOING TO MARSHALL?


FAA INFORMATION EFFECTIVE 25 MARCH 2021

Location

FAA Identifier: WI97
Lat/Long: 43-15-27.9720N 089-03-53.3960W
43-15.466200N 089-03.889933W
43.2577700,-89.0648322
(estimated)
Elevation: 960 ft. / 292.6 m (surveyed)
Variation: 00W (1985)
From city: 5 miles N of MARSHALL, WI
Time zone: UTC -5 (UTC -6 during Standard Time)
Zip code: 53925

Airport Operations

Airport use: Private use. Permission required prior to landing
Activation date: 11/1968
Control tower: no
ARTCC: CHICAGO CENTER
FSS: GREEN BAY FLIGHT SERVICE STATION
Attendance: UNATNDD
Wind indicator: yes
Segmented circle: no

Airport Communications

WX ASOS at MSN (14 nm SW): PHONE 608-249-0615
WX AWOS-3 at RYV (16 nm E): 119.975 (920-261-0734)
WX AWOS-3 at UNU (19 nm NE): 120.825 (920-386-5682)

Nearby radio navigation aids

VOR radial/distance  VOR name  Freq  Var
MSNr058/13.8MADISON VORTAC108.6003E
DLLr117/35.2DELLS VORTAC117.0003E
BAEr282/35.2BADGER VOR/DME116.4002E

 
NDB name  Hdg/Dist  Freq  Var  ID
ROCK RIVER290/15.737101WRYV .-. -.-- ...-
JUNEAU238/18.934401WUNU ..- -. ..-

Airport Services

Airframe service: NONE
Powerplant service: NONE

Runway Information

Runway 18/36

Dimensions: 2600 x 75 ft. / 792 x 23 m
Surface: turf
RUNWAY 18  RUNWAY 36
Traffic pattern: leftleft
Obstructions: treesnone

Airport Ownership and Management from official FAA records

Ownership: Privately-owned
Owner: MATHAIRE FIELD LLC
4349 COUNTY HWY DM
DEFOREST, WI 53532
Phone 608-846-5027
Manager: ED MCGAVOCK
4349 COUNTY HWY DM
DEFOREST, WI 53532
Phone 608-846-5027
EMAIL ADDRESS: EDMCGAVOCK@GMAIL.COM

Airport Operational Statistics

Aircraft based on the field: 25
Single engine airplanes: 18
Ultralights: 7
    

Additional Remarks

FOR CD CTC CHICAGO ARTCC AT 630-906-8921.

Instrument Procedures

There are no published instrument procedures at WI97.

Some nearby airports with instrument procedures:

87Y - Blackhawk Airfield (11 nm SW)
KMSN - Dane County Regional Airport-Truax Field (14 nm SW)
KRYV - Watertown Municipal Airport (16 nm E)
KUNU - Dodge County Airport (19 nm NE)
61C - Fort Atkinson Municipal Airport (21 nm SE)
 
Loc | Ops | Rwys | IFR | FBO | Links
Com | Nav | Svcs | Stats | Notes
Area around WI97 (Mathaire Field Airport)
 
Road maps at: MapQuest Bing Google
 
Aerial photo
No photo
 
Sectional chart

 
Airport distance calculator
Flying to Mathaire Field Airport? Find the distance to fly.

From to WI97

Sunrise and sunset
Times for 19-Apr-2021
 Local
(UTC-5)
 Zulu
(UTC)
Morning civil twilight05:3910:39
Sunrise06:0911:09
Sunset19:4200:42
Evening civil twilight20:1201:12

Current date and time
Zulu (UTC)  19-Apr-2021 12:48:19
Local (UTC-5)  19-Apr-2021 07:48:19
 
METAR
KMSN 
15nm SW 
191234Z 31009G18KT 10SM -RA BKN014 OVC019 04/02 A2982 RMK AO2 RAB22 P0000 T00440017
KRYV 
16nm E 
191235Z AUTO 28011G16KT 10SM BKN018 BKN023 OVC029 05/04 A2980 RMK AO2 T00500035
KUNU 
19nm NE 
191235Z AUTO 29004KT 10SM SCT016 BKN021 OVC033 04/02 A2980 RMK AO2 T00370020
KC29 
22nm SW 
191235Z AUTO 33015G18KT 10SM BKN016 OVC032 05/01 A2984 RMK AO1 T00470008
TAF
KMSN 
15nm SW 
191135Z 1912/2012 31010G20KT P6SM BKN025 TEMPO 1912/1916 SCT025 OVC040 FM191600 31013G21KT P6SM BKN040 FM192100 30012KT P6SM BKN060 FM200100 31008KT P6SM BKN090 FM200500 32004KT P6SM BKN120
NOTAMs
Click for the latest NOTAMs
NOTAMs are issued by the DoD/FAA and will open in a separate window not controlled by AirNav.

 

 
 

Would you like to see your business listed on this page?

 If your business provides an interesting product or service to pilots, flight crews, aircraft, or users of the Mathaire Field Airport, you should consider listing it here.  To start the listing process, click on the button below
 
Add a business
 

Other Pages about Mathaire Field Airport

Update a link
 
Copyright © AirNav, LLC. All rights reserved. Privacy Policy  Contact